Weather History for Fort Myers, FL

Change the Weather History Date:

Sunday, February 10, 2013

  Actual Average Record
Temperature  
Mean Temperature 73 °F 66 °F  
Max Temperature 84 °F 77 °F 88 °F (2001)
Min Temperature 62 °F 55 °F 38 °F (1976)
Degree Days  
Heating Degree Days 0 2  
Month to date heating degree days 19 26  
Since 1 July heating degree days 91 227  
Cooling Degree Days 8 3  
Month to date cooling degree days 32 30  
Year to date cooling degree days 208 113  
Growing Degree Days 22 (Base 50)    
Moisture  
Dew Point 59 °F    
Average Humidity 68    
Maximum Humidity 90    
Minimum Humidity 37    
Precipitation  
Precipitation 0.00 in 0.06 in 1.22 in (1983)
Month to date precipitation 0.01 0.68  
Year to date precipitation 0.63 2.62  
Sea Level Pressure  
Sea Level Pressure 30.18 in    
Wind  
Wind Speed 9 mph (ESE)    
Max Wind Speed 17 mph    
Max Gust Speed 23 mph    
Visibility 10 miles    
Events      
T = Trace of Precipitation, MM = Missing Value Source: NWS Daily Summary

Daily Weather History Graph

Daily Weather History Graph

Search for Another Location

Airport:

Trip Planner

Search our weather history database for the weather conditions in past years. The results will help you decide how hot, cold, wet, or windy it might be!

Date:

Astronomy

Feb. 10, 2013 Rise Set
Actual Time 7:06 AM EST 6:16 PM EST
Civil Twilight 6:43 AM EST 6:40 PM EST
Nautical Twilight 6:15 AM EST 7:08 PM EST
Astronomical Twilight 5:48 AM EST 7:35 PM EST
Moon 7:02 AM EST (2/10) 6:56 PM EST (2/10)
Length of Visible Light 11h 57m
Length of Day
11h 09m
New Moon, 0% of the Moon is Illuminated
Feb 10
New Moon
Feb 17
First Quarter
Feb 25
Full
Mar 4
Last Quarter
Mar 11
New

Hourly Weather History & Observations

Time (EST) Temp. Heat Index Dew Point Humidity Pressure Visibility Wind Dir Wind Speed Gust Speed Precip Events Conditions
12:53 AM 64.9 °F - 59.0 °F 81% 30.18 in 10.0 mi ENE 5.8 mph - N/A   Scattered Clouds
1:53 AM 63.0 °F - 59.0 °F 87% 30.17 in 10.0 mi East 4.6 mph - N/A   Partly Cloudy
2:53 AM 63.0 °F - 59.0 °F 87% 30.16 in 10.0 mi East 5.8 mph - N/A   Clear
3:53 AM 63.0 °F - 59.0 °F 87% 30.16 in 10.0 mi East 5.8 mph - N/A   Scattered Clouds
4:53 AM 64.0 °F - 59.0 °F 84% 30.16 in 10.0 mi East 10.4 mph - N/A   Partly Cloudy
5:53 AM 64.0 °F - 57.9 °F 80% 30.17 in 10.0 mi East 6.9 mph - N/A   Clear
6:53 AM 62.1 °F - 57.0 °F 84% 30.19 in 10.0 mi East 5.8 mph - N/A   Clear
7:53 AM 63.0 °F - 57.9 °F 84% 30.20 in 10.0 mi East 9.2 mph - N/A   Mostly Cloudy
8:53 AM 68.0 °F - 60.1 °F 76% 30.22 in 10.0 mi East 8.1 mph - N/A   Clear
9:53 AM 73.9 °F - 60.1 °F 62% 30.23 in 10.0 mi East 11.5 mph - N/A   Clear
10:53 AM 78.1 °F - 60.1 °F 54% 30.24 in 10.0 mi ESE 13.8 mph - N/A   Clear
11:53 AM 79.0 °F - 57.9 °F 48% 30.23 in 10.0 mi ESE 15.0 mph - N/A   Clear
12:53 PM 81.0 °F 81.1 °F 57.9 °F 45% 30.20 in 10.0 mi East 10.4 mph - N/A   Mostly Cloudy
1:53 PM 82.9 °F 81.9 °F 54.0 °F 37% 30.17 in 10.0 mi SSE 8.1 mph 17.3 mph N/A   Scattered Clouds
2:53 PM 81.0 °F 80.7 °F 55.0 °F 41% 30.14 in 10.0 mi ESE 11.5 mph - N/A   Mostly Cloudy
3:53 PM 82.0 °F 82.1 °F 59.0 °F 45% 30.14 in 10.0 mi East 11.5 mph - N/A   Overcast
4:53 PM 78.1 °F - 60.1 °F 54% 30.14 in 10.0 mi East 13.8 mph 23.0 mph N/A   Overcast
5:53 PM 75.9 °F - 61.0 °F 60% 30.16 in 10.0 mi East 12.7 mph - N/A   Mostly Cloudy
6:53 PM 73.9 °F - 61.0 °F 64% 30.18 in 10.0 mi ESE 11.5 mph - N/A   Overcast
7:53 PM 71.1 °F - 60.1 °F 68% 30.19 in 10.0 mi ESE 10.4 mph - N/A   Clear
8:53 PM 70.0 °F - 60.1 °F 71% 30.19 in 10.0 mi ESE 10.4 mph - N/A   Clear
9:53 PM 68.0 °F - 60.1 °F 76% 30.21 in 10.0 mi ESE 6.9 mph - N/A   Clear
10:53 PM 66.0 °F - 60.1 °F 81% 30.21 in 10.0 mi ESE 4.6 mph - N/A   Clear
11:53 PM 64.9 °F - 60.1 °F 84% 30.19 in 10.0 mi SE 4.6 mph - N/A   Clear